METEOR 2-5 DEB, 45513

Orbit data source: Space-Track

METEOR 2-5 DEB, 45513 is space debris in LEO originally from a launch on Wed, 31 Oct 1979 UTC launched from the Plesetsk Missile And Space Complex (PKMTR). Debris objects in space refer to the collection of defunct objects orbiting the Earth. Examples of debris include non-operational satellites, rocket bodies, and fragments generated from explosions, collisions, or faulty payload assembly.

Loading next visibility...
Identifier
45513, 1979-095CV
Orbit
LEO
Country
Flag of CISCIS
Related business
Manufacturer
Unknown
Mission
Spacecraft
Bus & Motor
Unknown
Mass
Unknown
Launch date (UTC)
1979-10-31 (47 years ago)
Launch vehicle
Unknown
Launch site
Plesetsk Missile And Space Complex (PKMTR)
Object type
Payload
Rocket body
Debris
Shape & HBR
Unknown shape, 0.1 m
Radar Cross Section
Small (<0.1 m²)

Expand to show TLE details & history
Last TLE update: 3 days ago

TLE from 3 days ago
0 METEOR 2-5 DEB
1 45513U 79095CV  26121.53058692  .00005781  00000-0  18687-2 0  9991
2 45513  81.1963 198.9974 0011979 172.7715 187.3646 14.38966610657841
Epoch: 2026-05-01T12:44Z
TLE epoch observation values (Epoch: 2026-05-01T12:44:02.709Z)
Latitude
-0.00012°
Longitude
148.52458°
Altitude
773.337 km
Speed
7.463 km/s
True Right ascension
13h 15m 59s
True Declination
0° 00' 00"
Sunlit
Object was in full shadow at epoch
Visualization orbit readout
Latitude
Unknown
Longitude
Unknown
Altitude
Unknown
Speed
Unknown
Apparent Right ascension
Unknown
Apparent Declination
Unknown
Sunlit
N/A
Visualization observer readout
Local Sidereal Time
15:01:57
Azimuth
Unknown
Elevation
Unknown
Doppler factor
Unknown
Orbital elements
Apogee altitude
767.602 km
Perigee altitude
750.503 km
Semi-major axis
7,137.19 km
Eccentricity
0.0012
Inclination
81.1963°
RAAN
198.9974°
Arg. of periapsis
172.7715°
True anomaly
187.34703°
Mean anomaly
187.3646°
Eccentric anomaly
187.35581°
Mean motion
3.59958 °/min
Orbital period
100.01 mins
BSTAR
0.0018687
Loading maneuver chart data...
Computing Atmospheric mass density...

Documentation

Showing up to 5 results
|